TimeEDT,TemperatureF,Dew PointF,Humidity,Sea Level PressureIn,VisibilityMPH,Wind Direction,Wind SpeedMPH,Gust SpeedMPH,PrecipitationIn,Events,Conditions,WindDirDegrees,DateUTC
12:15 AM,32.5,28.8,86,30.31,10.0,Calm,Calm,-,N/A,,Clear,0,2013-03-10 05:15:00
12:35 AM,32.5,28.8,86,30.31,10.0,Calm,Calm,-,N/A,,Clear,0,2013-03-10 05:35:00
12:55 AM,31.6,28.2,87,30.32,10.0,Calm,Calm,-,N/A,,Clear,0,2013-03-10 05:55:00
1:15 AM,32.2,28.9,88,30.32,10.0,Calm,Calm,-,N/A,,Clear,0,2013-03-10 06:15:00
1:35 AM,30.2,26.8,87,30.32,10.0,Calm,Calm,-,N/A,,Clear,0,2013-03-10 06:35:00
1:55 AM,30.2,26.6,86,30.32,10.0,Calm,Calm,-,N/A,,Clear,0,2013-03-10 06:55:00
3:15 AM,30.2,27.5,90,30.31,10.0,Calm,Calm,-,N/A,,Clear,0,2013-03-10 07:15:00
3:35 AM,30.2,27.7,90,30.30,10.0,Calm,Calm,-,N/A,,Clear,0,2013-03-10 07:35:00
3:55 AM,30.2,27.5,90,30.30,10.0,Calm,Calm,-,N/A,,Clear,0,2013-03-10 07:55:00
4:15 AM,30.2,27.5,90,30.29,10.0,Calm,Calm,-,N/A,,Clear,0,2013-03-10 08:15:00
4:55 AM,29.8,27.3,90,30.29,10.0,Calm,Calm,-,N/A,,Clear,0,2013-03-10 08:55:00
5:15 AM,30.2,27.5,90,30.30,10.0,Calm,Calm,-,N/A,,Clear,0,2013-03-10 09:15:00
5:35 AM,28.4,25.7,90,30.30,10.0,Calm,Calm,-,N/A,,Clear,0,2013-03-10 09:35:00
5:55 AM,29.5,26.8,90,30.31,10.0,Calm,Calm,-,N/A,,Clear,0,2013-03-10 09:55:00
6:15 AM,27.9,25.3,90,30.31,10.0,Calm,Calm,-,N/A,,Clear,0,2013-03-10 10:15:00
6:35 AM,27.9,25.3,90,30.31,10.0,Calm,Calm,-,N/A,,Clear,0,2013-03-10 10:35:00
6:55 AM,26.8,24.3,90,30.31,10.0,Calm,Calm,-,N/A,,Clear,0,2013-03-10 10:55:00
7:15 AM,27.9,25.7,92,30.31,10.0,Calm,Calm,-,N/A,,Clear,0,2013-03-10 11:15:00
7:35 AM,27.7,25.3,91,30.32,10.0,Calm,Calm,-,N/A,,Clear,0,2013-03-10 11:35:00
8:35 AM,30.2,27.5,90,30.33,10.0,Calm,Calm,-,N/A,,Clear,0,2013-03-10 12:35:00
8:55 AM,32.5,30.4,92,30.33,10.0,Calm,Calm,-,N/A,,Clear,0,2013-03-10 12:55:00
9:15 AM,36.7,33.4,88,30.33,10.0,Calm,Calm,-,N/A,,Clear,0,2013-03-10 13:15:00
9:35 AM,42.6,34.0,71,30.33,10.0,Calm,Calm,-,N/A,,Clear,0,2013-03-10 13:35:00
9:55 AM,45.1,26.1,47,30.33,10.0,ENE,6.9,-,N/A,,Clear,70,2013-03-10 13:55:00
10:15 AM,47.5,22.6,38,30.34,10.0,ENE,4.6,-,N/A,,Clear,70,2013-03-10 14:15:00
10:35 AM,50.0,25.0,38,30.34,10.0,NNE,4.6,-,N/A,,Clear,20,2013-03-10 14:35:00
10:55 AM,50.0,19.8,30,30.34,10.0,ENE,5.8,-,N/A,,Clear,60,2013-03-10 14:55:00
11:15 AM,52.7,19.6,27,30.34,10.0,East,5.8,-,N/A,,Clear,80,2013-03-10 15:15:00
11:35 AM,54.3,16.7,23,30.34,10.0,East,3.5,-,N/A,,Clear,90,2013-03-10 15:35:00
11:55 AM,55.0,16.2,22,30.34,10.0,Calm,Calm,-,N/A,,Clear,0,2013-03-10 15:55:00
12:15 PM,55.2,14.5,20,30.33,10.0,ENE,3.5,-,N/A,,Clear,70,2013-03-10 16:15:00
12:35 PM,56.3,9.3,15,30.32,10.0,Calm,Calm,-,N/A,,Clear,0,2013-03-10 16:35:00
12:55 PM,56.8,10.8,16,30.32,10.0,Calm,Calm,-,N/A,,Clear,0,2013-03-10 16:55:00
1:15 PM,57.9,8.6,14,30.31,10.0,NE,3.5,-,N/A,,Clear,50,2013-03-10 17:15:00
1:35 PM,59.7,9.0,13,30.31,10.0,Calm,Calm,-,N/A,,Clear,0,2013-03-10 17:35:00
1:55 PM,60.1,6.4,12,30.30,7.0,East,5.8,-,N/A,,Clear,90,2013-03-10 17:55:00
2:15 PM,60.3,7.2,12,30.29,10.0,Calm,Calm,-,N/A,,Clear,0,2013-03-10 18:15:00
2:35 PM,61.3,9.3,13,30.27,10.0,Calm,Calm,-,N/A,,Clear,0,2013-03-10 18:35:00
2:55 PM,64.8,12.9,13,30.26,10.0,SE,8.1,-,N/A,,Clear,140,2013-03-10 18:55:00
3:15 PM,65.3,7.9,11,30.26,10.0,ESE,4.6,-,N/A,,Clear,110,2013-03-10 19:15:00
3:35 PM,65.3,11.7,12,30.26,10.0,East,5.8,-,N/A,,Clear,100,2013-03-10 19:35:00
3:55 PM,65.3,10.2,12,30.26,10.0,Calm,Calm,-,N/A,,Clear,0,2013-03-10 19:55:00
4:15 PM,65.3,12.6,13,30.26,10.0,ESE,4.6,-,N/A,,Clear,120,2013-03-10 20:15:00
4:35 PM,65.3,12.6,13,30.26,10.0,SE,5.8,-,N/A,,Clear,140,2013-03-10 20:35:00
4:55 PM,65.3,18.0,16,30.26,10.0,East,5.8,-,N/A,,Clear,90,2013-03-10 20:55:00
5:15 PM,65.3,17.1,16,30.25,10.0,SSE,4.6,-,N/A,,Clear,160,2013-03-10 21:15:00
5:35 PM,64.6,21.2,19,30.25,10.0,ESE,4.6,-,N/A,,Clear,110,2013-03-10 21:35:00
5:55 PM,60.1,22.5,24,30.25,10.0,East,4.6,-,N/A,,Clear,90,2013-03-10 21:55:00
6:15 PM,59.0,26.8,29,30.26,10.0,ESE,4.6,-,N/A,,Clear,110,2013-03-10 22:15:00
6:35 PM,58.1,29.1,33,30.26,10.0,ESE,4.6,-,N/A,,Clear,120,2013-03-10 22:35:00
6:55 PM,57.6,27.0,31,30.26,10.0,SE,4.6,-,N/A,,Clear,130,2013-03-10 22:55:00
7:15 PM,55.0,29.7,38,30.27,10.0,ESE,3.5,-,N/A,,Clear,120,2013-03-10 23:15:00
7:35 PM,55.0,28.8,37,30.27,10.0,Calm,Calm,-,N/A,,Clear,0,2013-03-10 23:35:00
7:55 PM,54.0,27.7,36,30.27,10.0,ESE,4.6,-,N/A,,Clear,120,2013-03-10 23:55:00
8:15 PM,52.7,30.4,42,30.27,10.0,ESE,3.5,-,N/A,,Clear,110,2013-03-11 00:15:00
8:35 PM,50.0,35.2,57,30.28,10.0,ESE,4.6,-,N/A,,Clear,110,2013-03-11 00:35:00
8:55 PM,50.0,40.1,69,30.29,10.0,SE,3.5,-,N/A,,Clear,130,2013-03-11 00:55:00
9:15 PM,47.1,40.1,77,30.30,10.0,Calm,Calm,-,N/A,,Clear,0,2013-03-11 01:15:00
9:35 PM,47.5,41.0,78,30.29,10.0,ESE,4.6,-,N/A,,Clear,120,2013-03-11 01:35:00
9:55 PM,47.5,41.5,80,30.28,10.0,ESE,5.8,-,N/A,,Clear,110,2013-03-11 01:55:00
10:15 PM,45.3,40.3,83,30.28,10.0,ESE,4.6,-,N/A,,Clear,120,2013-03-11 02:15:00
10:35 PM,45.1,40.3,83,30.28,10.0,ESE,3.5,-,N/A,,Clear,120,2013-03-11 02:35:00
10:55 PM,45.1,40.8,85,30.29,10.0,SE,3.5,-,N/A,,Clear,140,2013-03-11 02:55:00
11:15 PM,45.1,41.4,87,30.30,10.0,SE,3.5,-,N/A,,Clear,130,2013-03-11 03:15:00
11:35 PM,45.1,41.4,87,30.29,10.0,SE,3.5,-,N/A,,Clear,140,2013-03-11 03:35:00
11:55 PM,45.1,42.1,89,30.28,10.0,Calm,Calm,-,N/A,,Clear,0,2013-03-11 03:55:00
12:15 AM,43.7,40.5,88,30.28,10.0,Calm,Calm,-,N/A,,Clear,0,2013-03-11 04:15:00
12:35 AM,44.1,41.0,89,30.28,10.0,Calm,Calm,-,N/A,,Clear,0,2013-03-11 04:35:00
12:55 AM,40.6,37.8,89,30.29,10.0,Calm,Calm,-,N/A,,Clear,0,2013-03-11 04:55:00